Location: Unspecified
(0.0000°N, 0.0000°E)
Time: 13:56:05
(UTC+00:00)

Altair - Pass Details

Date: 05 November 2021
Orbit: 1502 x 1682 km, 47.2° (Epoch: 26 November)

Event Time Altitude Azimuth Distance (km) Brightness Sun altitude
Rises 10:18:08 0° 284° (WNW) 4,882 9.9 63.6°
Reaches altitude 10° 10:22:33 10° 268° (W) 3,917 9.6 64.5°
Maximum altitude 10:29:06 19° 226° (SW) 3,258 9.5 65.7°
Drops below altitude 10° 10:35:44 10° 185° (S) 3,943 10.0 67.0°
Sets 10:40:17 0° 168° (SSE) 4,924 10.4 67.8°
